Simultaneous Nadir Overpasses (SNOs) Predictions

Prediction of SNOs between FY3D and AQUA Satellite Orbit:

Table of predicted SNOs for the next 14.0 days since TLE Epoch: 5/15/2021
Index Date (FY3D) Time (FY3D) Lat,Lon (FY3D) SZA (FY3D ) Date (AQUA) Time (AQUA) Lat,Lon (AQUA) SZA (AQUA ) Distance(km) Time Diff (sec)
1 05/16/2021 22:22:11 47.44,-140.96 30.67 05/16/2021 22:23:16 47.43,-140.94 30.76 0.97 65
2 05/16/2021 23:12:39 -46.67, 26.68 149.91 05/16/2021 23:12:28 -46.74, 26.97 149.77 23.28 11
3 05/19/2021 14:39:44 51.71, -26.92 33.47 05/19/2021 14:40:57 51.71, -26.85 33.56 4.78 73
4 05/19/2021 15:28:47 -46.06, 142.87 150.90 05/19/2021 15:28:46 -46.09, 143.10 150.80 17.83 1
5 05/22/2021 07:02:44 73.83, 66.54 53.44 05/22/2021 07:03:57 74.03, 67.77 53.58 43.91 73
6 05/22/2021 07:45:05 -46.11,-101.21 151.38 05/22/2021 07:45:15 -46.16,-101.05 151.26 13.38 10
7 05/22/2021 08:37:01 50.04, 64.43 31.59 05/22/2021 08:35:51 50.13, 65.00 31.75 41.74 70
8 05/24/2021 23:26:15 75.29, 68.59 76.72 05/24/2021 23:27:28 75.71, 66.26 76.91 79.44 73
9 05/25/2021 00:01:22 -46.06, 14.76 151.88 05/25/2021 00:01:42 -46.06, 14.87 151.81 8.42 20
10 05/25/2021 00:53:08 49.42,-179.34 30.62 05/25/2021 00:52:09 49.51,-178.85 30.77 36.61 59
11 05/27/2021 16:17:40 -46.10, 130.69 152.30 05/27/2021 16:18:11 -46.09, 130.74 152.24 3.60 31



Historial Predications of SNOs between FY3D and AQUA
